Time,TemperatureF,DewpointF,PressureIn,WindDirection,WindDirectionDegrees,WindSpeedMPH,WindSpeedGustMPH,Humidity,HourlyPrecipIn,Conditions,Clouds,dailyrainin,SoftwareType,DateUTC
2013-05-20 00:12:00,73.8,68.0,29.64,SW,220,3.0,8.0,83,0.01,,,0.01,weatherlink.com 1.10,2013-05-20 05:12:00,
2013-05-20 00:27:00,73.1,68.0,29.68,SW,229,1.0,9.0,84,0.00,,,0.01,weatherlink.com 1.10,2013-05-20 05:27:00,
2013-05-20 00:43:00,71.9,64.0,29.74,WNW,283,9.0,23.0,75,0.00,,,0.00,weatherlink.com 1.10,2013-05-20 05:43:00,
2013-05-20 00:58:00,68.5,59.0,29.73,West,275,15.0,26.0,72,0.00,,,0.00,weatherlink.com 1.10,2013-05-20 05:58:00,
2013-05-20 01:13:00,66.9,59.0,29.72,NW,304,4.0,13.0,77,0.00,,,0.00,weatherlink.com 1.10,2013-05-20 06:13:00,
2013-05-20 01:28:00,66.0,59.0,29.71,WNW,289,5.0,10.0,79,0.00,,,0.00,weatherlink.com 1.10,2013-05-20 06:28:00,
2013-05-20 01:43:00,65.1,60.0,29.73,WNW,294,1.0,8.0,83,0.01,,,0.01,weatherlink.com 1.10,2013-05-20 06:43:00,
2013-05-20 01:58:00,62.7,60.0,29.73,NW,318,2.0,13.0,90,0.27,,,0.27,weatherlink.com 1.10,2013-05-20 06:58:00,
2013-05-20 02:13:00,61.4,59.0,29.77,WSW,247,1.0,6.0,93,0.45,,,0.45,weatherlink.com 1.10,2013-05-20 07:13:00,
2013-05-20 02:28:00,60.9,60.0,29.75,WNW,284,4.0,11.0,95,0.55,,,0.55,weatherlink.com 1.10,2013-05-20 07:28:00,
2013-05-20 02:43:00,60.8,59.0,29.76,SW,215,3.0,9.0,95,0.57,,,0.58,weatherlink.com 1.10,2013-05-20 07:43:00,
2013-05-20 02:58:00,60.7,60.0,29.74,WNW,289,2.0,10.0,96,0.29,,,0.58,weatherlink.com 1.10,2013-05-20 07:58:00,
2013-05-20 03:13:00,60.5,59.0,29.75,SW,214,0.0,6.0,96,0.13,,,0.59,weatherlink.com 1.10,2013-05-20 08:13:00,
2013-05-20 03:28:00,60.6,60.0,29.75,SSW,193,1.0,5.0,96,0.07,,,0.62,weatherlink.com 1.10,2013-05-20 08:28:00,
2013-05-20 03:43:00,60.6,60.0,29.71,ENE,65,2.0,5.0,96,0.07,,,0.65,weatherlink.com 1.10,2013-05-20 08:43:00,
2013-05-20 03:58:00,60.5,59.0,29.72,SE,129,7.0,10.0,96,0.07,,,0.65,weatherlink.com 1.10,2013-05-20 08:58:00,
2013-05-20 04:13:00,60.4,59.0,29.65,North,360,4.0,7.0,96,0.07,,,0.66,weatherlink.com 1.10,2013-05-20 09:13:00,
2013-05-20 04:28:00,60.5,59.0,29.70,ESE,120,12.0,19.0,96,0.05,,,0.67,weatherlink.com 1.10,2013-05-20 09:28:00,
2013-05-20 04:43:00,60.4,59.0,29.71,SE,140,3.0,13.0,96,0.02,,,0.67,weatherlink.com 1.10,2013-05-20 09:43:00,
2013-05-20 04:58:00,60.4,59.0,29.72,SSE,156,10.0,15.0,96,0.02,,,0.67,weatherlink.com 1.10,2013-05-20 09:58:00,
2013-05-20 05:13:00,60.5,59.0,29.76,SW,227,8.0,15.0,96,0.01,,,0.67,weatherlink.com 1.10,2013-05-20 10:13:00,
2013-05-20 05:28:00,60.6,60.0,29.79,WSW,239,6.0,15.0,96,0.00,,,0.67,weatherlink.com 1.10,2013-05-20 10:28:00,
2013-05-20 05:43:00,60.7,60.0,29.82,SSW,192,1.0,10.0,96,0.00,,,0.67,weatherlink.com 1.10,2013-05-20 10:43:00,
2013-05-20 05:58:00,60.7,60.0,29.81,South,174,6.0,12.0,96,0.03,,,0.70,weatherlink.com 1.10,2013-05-20 10:58:00,
2013-05-20 06:13:00,60.7,60.0,29.80,South,179,7.0,12.0,96,0.03,,,0.70,weatherlink.com 1.10,2013-05-20 11:13:00,
2013-05-20 06:28:00,60.7,60.0,29.79,SSE,161,4.0,12.0,96,0.03,,,0.70,weatherlink.com 1.10,2013-05-20 11:28:00,
2013-05-20 06:43:00,60.7,60.0,29.77,South,188,8.0,12.0,96,0.04,,,0.71,weatherlink.com 1.10,2013-05-20 11:43:00,
2013-05-20 06:58:00,60.6,60.0,29.74,South,175,5.0,9.0,96,0.01,,,0.71,weatherlink.com 1.10,2013-05-20 11:58:00,
2013-05-20 07:13:00,60.7,59.0,29.73,SE,140,7.0,14.0,95,0.01,,,0.71,weatherlink.com 1.10,2013-05-20 12:13:00,
2013-05-20 07:29:00,60.7,60.0,29.76,South,169,5.0,15.0,96,0.04,,,0.74,weatherlink.com 1.10,2013-05-20 12:29:00,
2013-05-20 07:44:00,61.0,60.0,29.77,SSW,192,4.0,16.0,96,0.03,,,0.74,weatherlink.com 1.10,2013-05-20 12:44:00,
2013-05-20 07:59:00,61.8,61.0,29.75,South,180,6.0,13.0,96,0.03,,,0.74,weatherlink.com 1.10,2013-05-20 12:59:00,
2013-05-20 08:14:00,62.6,61.0,29.76,South,182,7.0,14.0,94,0.03,,,0.74,weatherlink.com 1.10,2013-05-20 13:14:00,
2013-05-20 08:29:00,63.8,62.0,29.76,South,180,9.0,13.0,93,0.00,,,0.74,weatherlink.com 1.10,2013-05-20 13:29:00,
2013-05-20 08:44:00,63.8,62.0,29.78,SSW,194,9.0,15.0,92,0.00,,,0.74,weatherlink.com 1.10,2013-05-20 13:44:00,
2013-05-20 08:59:00,63.4,61.0,29.76,SSE,163,5.0,14.0,93,0.01,,,0.75,weatherlink.com 1.10,2013-05-20 13:59:00,
2013-05-20 09:14:00,64.9,62.0,29.76,SSE,157,12.0,21.0,91,0.01,,,0.75,weatherlink.com 1.10,2013-05-20 14:14:00,
2013-05-20 09:29:00,65.9,63.0,29.73,SE,132,8.0,15.0,90,0.01,,,0.75,weatherlink.com 1.10,2013-05-20 14:29:00,
2013-05-20 09:44:00,66.9,63.0,29.73,South,169,10.0,19.0,88,0.01,,,0.75,weatherlink.com 1.10,2013-05-20 14:44:00,
2013-05-20 09:59:00,68.6,64.0,29.73,SSE,153,12.0,22.0,84,0.00,,,0.75,weatherlink.com 1.10,2013-05-20 14:59:00,
2013-05-20 10:14:00,69.2,64.0,29.73,South,177,9.0,19.0,83,0.00,,,0.75,weatherlink.com 1.10,2013-05-20 15:14:00,
2013-05-20 10:29:00,71.2,64.0,29.73,SSE,150,9.0,17.0,79,0.00,,,0.75,weatherlink.com 1.10,2013-05-20 15:29:00,
2013-05-20 10:44:00,71.8,65.0,29.75,South,188,8.0,18.0,79,0.00,,,0.75,weatherlink.com 1.10,2013-05-20 15:44:00,
2013-05-20 10:59:00,72.6,65.0,29.76,SSE,162,9.0,18.0,76,0.00,,,0.75,weatherlink.com 1.10,2013-05-20 15:59:00,
2013-05-20 11:14:00,73.2,65.0,29.75,South,178,8.0,18.0,75,0.00,,,0.75,weatherlink.com 1.10,2013-05-20 16:14:00,
2013-05-20 11:29:00,74.4,66.0,29.77,SSW,211,3.0,20.0,75,0.00,,,0.75,weatherlink.com 1.10,2013-05-20 16:29:00,
2013-05-20 11:44:00,75.8,66.0,29.80,SW,220,3.0,14.0,71,0.00,,,0.75,weatherlink.com 1.10,2013-05-20 16:44:00,
2013-05-20 12:14:00,71.9,65.0,29.82,NW,311,2.0,15.0,79,0.00,,,0.75,weatherlink.com 1.10,2013-05-20 17:14:00,
2013-05-20 12:29:00,74.1,66.0,29.81,NNW,334,0.0,10.0,75,0.00,,,0.75,weatherlink.com 1.10,2013-05-20 17:29:00,
2013-05-20 12:44:00,74.5,64.0,29.79,NNE,31,0.0,6.0,69,0.00,,,0.75,weatherlink.com 1.10,2013-05-20 17:44:00,
2013-05-20 12:59:00,76.1,62.0,29.77,ESE,111,1.0,10.0,62,0.00,,,0.75,weatherlink.com 1.10,2013-05-20 17:59:00,
2013-05-20 13:14:00,76.6,63.0,29.76,SSE,161,12.0,14.0,63,0.00,,,0.75,weatherlink.com 1.10,2013-05-20 18:14:00,
2013-05-20 13:29:00,76.6,65.0,29.77,SE,134,12.0,19.0,68,0.00,,,0.75,weatherlink.com 1.10,2013-05-20 18:29:00,
2013-05-20 13:44:00,76.7,65.0,29.76,SSE,165,14.0,17.0,68,0.00,,,0.75,weatherlink.com 1.10,2013-05-20 18:44:00,
2013-05-20 13:59:00,77.0,66.0,29.76,SE,127,8.0,15.0,69,0.00,,,0.75,weatherlink.com 1.10,2013-05-20 18:59:00,
2013-05-20 14:14:00,77.5,67.0,29.75,SSE,167,9.0,17.0,71,0.00,,,0.75,weatherlink.com 1.10,2013-05-20 19:14:00,
2013-05-20 14:29:00,77.6,67.0,29.76,South,169,9.0,18.0,69,0.00,,,0.75,weatherlink.com 1.10,2013-05-20 19:29:00,
2013-05-20 14:44:00,76.7,67.0,29.75,SSE,161,2.0,15.0,71,0.00,,,0.75,weatherlink.com 1.10,2013-05-20 19:44:00,
2013-05-20 14:59:00,75.7,66.0,29.75,SSE,161,10.0,14.0,73,0.00,,,0.75,weatherlink.com 1.10,2013-05-20 19:59:00,
2013-05-20 15:14:00,75.5,67.0,29.74,SSE,168,5.0,12.0,75,0.00,,,0.75,weatherlink.com 1.10,2013-05-20 20:14:00,
2013-05-20 15:29:00,75.5,68.0,29.73,SSE,153,9.0,15.0,77,0.00,,,0.75,weatherlink.com 1.10,2013-05-20 20:29:00,
2013-05-20 15:44:00,75.8,69.0,29.71,SE,143,7.0,14.0,78,0.00,,,0.75,weatherlink.com 1.10,2013-05-20 20:44:00,
2013-05-20 15:59:00,75.9,68.0,29.70,South,170,8.0,15.0,77,0.00,,,0.75,weatherlink.com 1.10,2013-05-20 20:59:00,
2013-05-20 16:14:00,75.3,68.0,29.71,South,178,13.0,13.0,79,0.00,,,0.75,weatherlink.com 1.10,2013-05-20 21:14:00,
2013-05-20 16:29:00,75.1,69.0,29.70,SSW,211,3.0,14.0,80,0.00,,,0.75,weatherlink.com 1.10,2013-05-20 21:29:00,
2013-05-20 16:44:00,74.7,69.0,29.70,South,175,3.0,10.0,81,0.00,,,0.75,weatherlink.com 1.10,2013-05-20 21:44:00,
2013-05-20 16:59:00,74.9,69.0,29.68,SSE,156,4.0,10.0,81,0.00,,,0.75,weatherlink.com 1.10,2013-05-20 21:59:00,
2013-05-20 17:14:00,75.3,69.0,29.67,South,174,7.0,13.0,81,0.00,,,0.75,weatherlink.com 1.10,2013-05-20 22:14:00,
2013-05-20 17:29:00,75.0,69.0,29.66,SSW,196,5.0,13.0,82,0.00,,,0.75,weatherlink.com 1.10,2013-05-20 22:29:00,
2013-05-20 17:44:00,75.0,70.0,29.67,SSE,167,5.0,8.0,83,0.00,,,0.75,weatherlink.com 1.10,2013-05-20 22:44:00,
2013-05-20 17:59:00,74.6,70.0,29.66,SSE,160,5.0,11.0,84,0.00,,,0.75,weatherlink.com 1.10,2013-05-20 22:59:00,
2013-05-20 18:14:00,74.2,69.0,29.64,SE,138,9.0,16.0,83,0.00,,,0.75,weatherlink.com 1.10,2013-05-20 23:14:00,
2013-05-20 18:29:00,73.8,69.0,29.65,SSE,160,4.0,10.0,85,0.00,,,0.75,weatherlink.com 1.10,2013-05-20 23:29:00,
2013-05-20 18:44:00,71.0,66.0,29.67,SSE,154,21.0,27.0,83,0.32,,,1.07,weatherlink.com 1.10,2013-05-20 23:44:00,
2013-05-20 18:59:00,64.9,63.0,29.69,South,175,7.0,16.0,92,0.96,,,1.71,weatherlink.com 1.10,2013-05-20 23:59:00,
2013-05-20 19:14:00,65.0,64.0,29.69,South,182,1.0,9.0,95,1.01,,,1.76,weatherlink.com 1.10,2013-05-21 00:14:00,
2013-05-20 19:29:00,65.4,64.0,29.68,South,175,0.0,5.0,95,1.01,,,1.76,weatherlink.com 1.10,2013-05-21 00:29:00,
2013-05-20 19:44:00,65.7,65.0,29.68,NNW,330,7.0,12.0,96,0.67,,,1.76,weatherlink.com 1.10,2013-05-21 00:44:00,
2013-05-20 19:59:00,64.2,63.0,29.71,West,268,4.0,13.0,95,0.04,,,1.76,weatherlink.com 1.10,2013-05-21 00:59:00,
2013-05-20 20:14:00,63.2,62.0,29.70,WNW,289,0.0,15.0,95,0.01,,,1.77,weatherlink.com 1.10,2013-05-21 01:14:00,
2013-05-20 20:29:00,62.4,61.0,29.72,WSW,249,2.0,7.0,95,0.24,,,2.00,weatherlink.com 1.10,2013-05-21 01:29:00,
2013-05-20 20:44:00,62.2,61.0,29.73,WSW,254,7.0,21.0,96,0.46,,,2.22,weatherlink.com 1.10,2013-05-21 01:44:00,
2013-05-20 20:59:00,61.9,61.0,29.70,South,169,0.0,10.0,96,0.53,,,2.29,weatherlink.com 1.10,2013-05-21 01:59:00,
2013-05-20 21:14:00,61.6,61.0,29.64,SSE,148,5.0,7.0,96,0.52,,,2.29,weatherlink.com 1.10,2013-05-21 02:14:00,
2013-05-20 21:29:00,61.6,61.0,29.69,SSW,209,6.0,12.0,96,0.28,,,2.29,weatherlink.com 1.10,2013-05-21 02:29:00,
2013-05-20 21:44:00,61.6,61.0,29.68,SSW,204,6.0,11.0,96,0.06,,,2.29,weatherlink.com 1.10,2013-05-21 02:44:00,
2013-05-20 21:59:00,61.8,61.0,29.69,South,182,3.0,15.0,96,0.00,,,2.29,weatherlink.com 1.10,2013-05-21 02:59:00,
2013-05-20 22:15:00,62.3,61.0,29.69,South,181,5.0,13.0,96,0.00,,,2.29,weatherlink.com 1.10,2013-05-21 03:15:00,
2013-05-20 22:30:00,62.7,61.0,29.68,SSW,198,3.0,15.0,95,0.00,,,2.29,weatherlink.com 1.10,2013-05-21 03:30:00,
2013-05-20 22:45:00,63.0,61.0,29.67,SSE,159,5.0,11.0,94,0.00,,,2.29,weatherlink.com 1.10,2013-05-21 03:45:00,
2013-05-20 23:00:00,63.0,61.0,29.69,SSE,149,7.0,13.0,94,0.00,,,2.29,weatherlink.com 1.10,2013-05-21 04:00:00,
2013-05-20 23:15:00,62.8,61.0,29.70,SSE,150,9.0,17.0,95,0.00,,,2.29,weatherlink.com 1.10,2013-05-21 04:15:00,
2013-05-20 23:30:00,62.7,61.0,29.70,South,186,6.0,15.0,95,0.00,,,2.29,weatherlink.com 1.10,2013-05-21 04:30:00,
2013-05-20 23:45:00,62.6,61.0,29.69,South,176,5.0,11.0,94,0.00,,,2.29,weatherlink.com 1.10,2013-05-21 04:45:00,